Flag for Sudan Weather past 2 weeks in Khartoum, Sudan

Now
91 °F

Clear.


Feels Like: 88 °F
Forecast: 83 / 109 °F
Wind: 7 mph from Southeast

Location: Khartoum Airport

Current Time: Jun 30, 2015 at 2:26:37 AM

Latest Report: Jun 30, 2015 at 2:00 AM


Visibility: 10 mi

Pressure: 29.77 "Hg

Humidity: 18%

Dew point: 43 °F

Location of KhartoumLocation

Historic Weather in Khartoum — Graph

°F

Khartoum temperature yesterday

Maximum temperature yesterday: 106 °F (at 5:00 PM)
Minimum temperature yesterday: 84 °F (at 7:00 AM)
Average temperature yesterday: 95 °F

Past Weeks' High & Low Weather Summary

 TemperatureHumidityPressure
High109 °F (Jun 20, 4:00 PM)52% (Jun 25, 8:00 AM)29.98 "Hg (Jun 25, 8:00 AM)
Low81 °F (Jun 18, 7:00 AM)4% (Jun 20, 4:00 PM)29.65 "Hg (Jun 17, 4:00 PM)
Average95 °F20%29.82 "Hg
* Reported Jun 15 1:00 AM — Jun 30 1:30 AM, Khartoum, Weather by CustomWeather, © 2015

Note: Actual official high and low records may vary slightly from our data, if they occured in-between our weather recording intervals... More about our weather records

Advertising

Khartoum weather history for previous 24 hours

 ConditionsComfort  
Time TempWeatherWind HumidityBarometerVisibility
1:30 AM
Tue, Jun 30
N/AHaze.6 mphN/A29.80 "Hg4 mi
12:00 AM93 °FClear.2 mph16%29.83 "Hg10 mi
10:30 PM
Mon, Jun 29
N/AClear.2 mphN/A29.83 "Hg10 mi
10:00 PM95 °FClear.2 mph13%29.83 "Hg10 mi
9:30 PMN/AClear.3 mphN/A29.83 "Hg10 mi
9:00 PM99 °FClear.2 mph13%29.80 "Hg10 mi
8:30 PMN/AClear.2 mphN/A29.80 "Hg10 mi
7:00 PM104 °FPassing clouds.8 mph8%29.77 "HgN/A
6:30 PMN/A6 mphN/AN/AN/A
6:00 PM106 °FExtremely hot.5 mph8%29.80 "HgN/A
5:30 PMN/A6 mphN/AN/AN/A
5:00 PM106 °FExtremely hot.9 mph9%29.80 "HgN/A
4:30 PMN/A6 mphN/AN/AN/A
3:30 PMN/A3 mphN/AN/AN/A
3:00 PM104 °FExtremely hot.6 mph11%29.86 "HgN/A
2:30 PMN/A7 mphN/AN/AN/A
2:00 PM104 °FExtremely hot.8 mph14%29.89 "HgN/A
1:30 PMN/ASunny.9 mphN/A29.89 "Hg10 mi
1:00 PM102 °FExtremely hot.9 mph18%29.89 "HgN/A
12:30 PMN/ASunny.10 mphN/A29.92 "Hg10 mi
11:30 AMN/ASunny.7 mphN/A29.95 "Hg10 mi
11:00 AM97 °FSunny.10 mph19%29.95 "Hg10 mi
10:30 AMN/ASunny.17 mphN/A29.95 "Hg10 mi
10:00 AM93 °FSunny.13 mph32%29.95 "Hg10 mi
9:30 AMN/ASunny.15 mphN/A29.95 "Hg10 mi
9:00 AM90 °FSunny.13 mph41%29.95 "Hg10 mi
8:30 AMN/ASunny.10 mphN/A29.95 "Hg10 mi
8:00 AMN/ASunny.10 mphN/A29.95 "Hg10 mi
7:30 AMN/ASunny.13 mphN/A29.92 "Hg10 mi
7:00 AM84 °FSunny.9 mph48%29.92 "Hg10 mi
6:30 AMN/ASunny.7 mphN/A29.92 "Hg10 mi
6:00 AM86 °FClear.8 mph49%29.89 "Hg10 mi
5:30 AMN/AClear.6 mphN/A29.89 "Hg10 mi
5:00 AM88 °FClear.9 mph43%29.89 "Hg10 mi
4:30 AMN/AClear.7 mphN/A29.86 "Hg10 mi
4:00 AM88 °FClear.12 mph38%29.86 "Hg10 mi
3:30 AMN/AClear.9 mphN/A29.86 "Hg10 mi
3:00 AM90 °FClear.9 mph38%29.86 "Hg10 mi
2:30 AMN/AClear.7 mphN/A29.86 "Hg10 mi
2:00 AM90 °FClear.7 mph38%29.89 "Hg10 mi
Weather by CustomWeather, © 2015

See weather overviewHow to use our weather pages